Terminal Aerodrome Forecast
Issued by NWS Melbourne, FL

Current Version | Previous Version | Text Only | Print | Product List | Glossary On
Versions: 1 2 3 4 5 6 7 8 9 10 11 12 13 14 15 16 17 18
000
FTUS42 KMLB 020538
TAFMLB
TAF
KMLB 020538Z 0206/0306 00000KT P6SM SCT120 OVC250
     FM021400 21006KT P6SM SCT025 BKN060 OVC250
     FM021800 14006KT P6SM VCTS SCT030CB OVC050
      TEMPO 0219/0222 VRB15G25KT 2SM TSRA BKN015CB OVC030
     FM022200 23005KT P6SM VCSH SCT025 OVC050
     FM030000 27003KT P6SM SCT025 OVC045=

USA.gov is the U.S. government's official web portal to all federal, state and local government web resources and services.